Mountain Loop
White Chuck
Latest observation 09/01 16:00 PDT
| Time (PDT) | Temp °F 5030' | RH % 5030' | Min mph 5030' | Spd mph 5030' | Gust mph 5030' | Dir ° 5030' | SnoHt in 5030' | SR W/m² 5030' |
|---|---|---|---|---|---|---|---|---|
| 09/01 16:00 | 52 | 91 | 0 | 1 | 4 | 266 | -0.2 | 165 |
| 09/01 15:00 | 55 | 86 | 0 | 1 | 4 | 256 | 0.6 | 226 |
| 09/01 14:00 | 57 | 82 | 0 | 0 | 2 | 256 | 0.6 | 348 |
| 09/01 13:00 | 59 | 73 | 0 | 1 | 3 | 262 | 0.5 | 622 |
| 09/01 12:00 | 61 | 67 | 0 | 0 | 4 | 250 | 0.6 | 537 |
| 09/01 11:00 | 59 | 70 | 0 | 1 | 2 | 265 | 0.4 | 445 |
| 09/01 10:00 | 58 | 66 | 0 | 0 | 3 | 199 | 0.6 | 290 |
| 09/01 09:00 | 55 | 70 | 0 | 0 | 1 | 140 | 0.6 | 85 |
| 09/01 08:00 | 53 | 68 | 0 | 0 | 0 | 143 | 0.9 | 60 |
| 09/01 07:00 | 52 | 68 | 0 | 0 | 0 | 143 | 0.7 | 8 |
| 09/01 06:00 | 55 | 52 | 0 | 0 | 1 | 167 | 0.7 | 0 |
| 09/01 05:00 | 56 | 51 | 0 | 0 | 1 | 175 | 0.8 | 0 |
| 09/01 04:00 | 56 | 47 | 0 | 0 | 5 | 210 | 0.9 | 0 |
| 09/01 03:00 | 57 | 46 | 0 | 0 | 3 | 81 | 0.4 | 0 |
| 09/01 02:00 | 58 | 45 | 0 | 0 | 2 | 127 | 0.7 | 0 |
| 09/01 01:00 | 58 | 46 | 0 | 1 | 3 | 145 | 0.8 | 0 |
| 09/01 00:00 | 58 | 47 | 0 | 1 | 5 | 135 | 0.9 | 0 |
| 08/31 23:00 | 59 | 47 | 0 | 1 | 5 | 96 | 0.7 | 0 |
| 08/31 22:00 | 58 | 51 | 0 | 0 | 3 | 147 | 1.0 | 0 |
| 08/31 21:00 | 58 | 56 | 0 | 0 | 1 | 128 | 0.8 | 0 |
| 08/31 20:00 | 59 | 59 | 0 | 0 | 2 | 118 | 0.5 | 17 |
| 08/31 19:00 | 61 | 56 | 0 | 0 | 2 | 34 | 0.6 | 41 |
| 08/31 18:00 | 62 | 56 | 0 | 0 | 3 | 299 | 0.7 | 66 |
| 08/31 17:00 | 62 | 55 | 0 | 0 | 2 | 112 | 1.0 | 71 |

